QPF
0.03 0.02 0.03 0.03 0.02 0.02 0.03 0.03 0.03 0.03 0.04 0.04 0.05 0.06 0.05 0.03 0.03 0.03 0.03 0.03 0.02 0.04 0.03 0.03 0.06 0.10 0.11 0.08 0.05 0.05 0.05 0.04 0.06 0.05 0.05 0.07 0.08 0.05 0.05 0.07 0.08 0.08 0.11
0.02 0.02 0.04 0.04 0.03 0.02 0.03 0.03 0.03 0.03 0.03 0.04 0.05 0.05 0.04 0.03 0.03 0.03 0.03 0.02 0.03 0.05 0.04 0.04 0.08 0.09 0.09 0.05 0.04 0.05 0.06 0.04 0.05 0.06 0.07 0.07 0.09 0.07 0.07 0.09 0.09 0.08 0.09
0.02 0.02 0.04 0.05 0.06 0.03 0.03 0.02 0.02 0.02 0.02 0.03 0.04 0.03 0.02 0.03 0.03 0.03 0.04 0.05 0.06 0.05 0.04 0.05 0.08 0.07 0.07 0.05 0.04 0.04 0.06 0.06 0.07 0.09 0.08 0.08 0.10 0.09 0.09 0.09 0.08 0.06 0.06
0.02 0.02 0.02 0.03 0.04 0.02 0.03 0.03 0.02 0.02 0.03 0.03 0.02 0.02 0.02 0.03 0.03 0.03 0.05 0.07 0.07 0.05 0.06 0.06 0.07 0.07 0.06 0.05 0.04 0.04 0.05 0.06 0.09 0.08 0.06 0.08 0.11 0.11 0.09 0.07 0.06 0.04 0.04
0.02 0.02 0.02 0.01 0.01 0.00 0.02 0.02 0.02 0.02 0.02 0.02 0.02 0.02 0.02 0.03 0.03 0.03 0.04 0.06 0.06 0.05 0.06 0.08 0.09 0.10 0.11 0.06 0.05 0.05 0.08 0.10 0.09 0.07 0.06 0.07 0.09 0.11 0.08 0.07 0.07 0.05 0.03
0.02 0.01 0.02 0.01 0.00 0.01 0.01 0.01 0.02 0.02 0.02 0.02 0.02 0.03 0.03 0.04 0.03 0.03 0.03 0.04 0.04 0.03 0.03 0.05 0.07 0.09 0.21 0.18 0.14 0.12 0.13 0.12 0.08 0.06 0.06 0.07 0.08 0.10 0.08 0.07 0.07 0.05 0.03
0.01 0.01 0.01 0.01 0.00 0.01 0.01 0.01 0.01 0.01 0.02 0.04 0.04 0.02 0.01 0.03 0.05 0.04 0.03 0.03 0.02 0.02 0.03 0.05 0.05 0.06 0.15 0.21 0.21 0.19 0.15 0.12 0.06 0.05 0.06 0.06 0.07 0.09 0.07 0.06 0.07 0.06 0.05
0.01 0.01 0.01 0.01 0.01 0.00 0.00 0.01 0.01 0.01 0.02 0.04 0.03 0.03 0.01 0.02 0.04 0.03 0.03 0.03 0.03 0.02 0.02 0.03 0.03 0.04 0.04 0.08 0.12 0.15 0.17 0.10 0.05 0.04 0.05 0.06 0.08 0.07 0.06 0.07 0.09 0.08 0.07
0.01 0.01 0.01 0.01 0.01 0.00 0.01 0.01 0.02 0.03 0.04 0.03 0.02 0.02 0.02 0.02 0.03 0.02 0.03 0.04 0.03 0.02 0.02 0.03 0.03 0.03 0.04 0.04 0.07 0.12 0.14 0.10 0.06 0.04 0.04 0.07 0.10 0.06 0.05 0.07 0.11 0.09 0.10
0.01 0.01 0.01 0.01 0.00 0.00 0.00 0.01 0.03 0.03 0.03 0.03 0.02 0.03 0.02 0.03 0.02 0.02 0.03 0.04 0.03 0.03 0.03 0.03 0.03 0.03 0.05 0.05 0.06 0.08 0.10 0.10 0.08 0.06 0.07 0.10 0.10 0.09 0.06 0.06 0.09 0.10 0.11
0.01 0.01 0.01 0.01 0.01 0.00 0.00 0.01 0.02 0.02 0.02 0.03 0.03 0.03 0.01 0.01 0.01 0.01 0.02 0.03 0.03 0.03 0.03 0.03 0.03 0.03 0.03 0.03 0.03 0.05 0.07 0.09 0.09 0.08 0.08 0.10 0.09 0.09 0.08 0.06 0.09 0.09 0.10
0.01 0.01 0.02 0.01 0.01 0.01 0.01 0.01 0.01 0.01 0.01 0.01 0.02 0.01 0.01 0.01 0.01 0.00 0.01 0.02 0.03 0.02 0.02 0.03 0.02 0.02 0.01 0.01 0.02 0.03 0.04 0.05 0.07 0.07 0.09 0.11 0.10 0.09 0.09 0.07 0.08 0.09 0.09
0.01 0.01 0.01 0.01 0.02 0.02 0.02 0.02 0.02 0.01 0.01 0.02 0.02 0.01 0.01 0.01 0.01 0.01 0.01 0.01 0.01 0.01 0.01 0.01 0.01 0.01 0.01 0.00 0.01 0.01 0.02 0.02 0.03 0.05 0.09 0.12 0.12 0.11 0.10 0.08 0.07 0.08 0.09
0.02 0.01 0.02 0.02 0.03 0.03 0.03 0.03 0.03 0.03 0.03 0.02 0.01 0.01 0.01 0.02 0.02 0.01 0.01 0.01 0.01 0.01 0.01 0.01 0.01 0.02 0.02 0.01 0.01 0.02 0.02 0.02 0.02 0.03 0.06 0.10 0.12 0.10 0.09 0.08 0.08 0.09 0.11
0.01 0.01 0.01 0.01 0.02 0.02 0.02 0.02 0.03 0.06 0.05 0.02 0.01 0.01 0.02 0.02 0.02 0.01 0.01 0.01 0.01 0.01 0.01 0.01 0.02 0.02 0.02 0.02 0.02 0.02 0.02 0.02 0.02 0.03 0.05 0.08 0.08 0.07 0.08 0.07 0.07 0.09 0.11
0.01 0.01 0.02 0.02 0.02 0.01 0.01 0.01 0.02 0.03 0.04 0.03 0.01 0.01 0.02 0.02 0.02 0.01 0.01 0.01 0.01 0.01 0.02 0.02 0.02 0.02 0.01 0.01 0.01 0.02 0.02 0.03 0.03 0.03 0.03 0.05 0.06 0.07 0.06 0.06 0.07 0.08 0.08
0.01 0.02 0.02 0.03 0.01 0.01 0.01 0.01 0.01 0.01 0.06 0.06 0.02 0.02 0.02 0.02 0.02 0.02 0.01 0.01 0.01 0.02 0.02 0.02 0.01 0.02 0.02 0.01 0.02 0.02 0.02 0.02 0.02 0.03 0.04 0.04 0.04 0.06 0.06 0.06 0.06 0.08 0.08
0.03 0.04 0.03 0.02 0.02 0.01 0.01 0.01 0.01 0.01 0.01 0.02 0.02 0.02 0.02 0.02 0.02 0.02 0.02 0.02 0.02 0.02 0.02 0.02 0.02 0.01 0.01 0.01 0.02 0.02 0.02 0.02 0.01 0.01 0.03 0.03 0.02 0.02 0.03 0.05 0.05 0.08 0.11
0.09 0.06 0.05 0.04 0.03 0.03 0.02 0.01 0.01 0.01 0.01 0.01 0.02 0.02 0.02 0.03 0.02 0.02 0.02 0.02 0.03 0.04 0.03 0.02 0.01 0.01 0.01 0.01 0.02 0.02 0.03 0.02 0.01 0.02 0.02 0.02 0.02 0.02 0.02 0.02 0.03 0.06 0.12
0.17 0.11 0.06 0.03 0.02 0.02 0.02 0.02 0.01 0.02 0.01 0.01 0.01 0.01 0.02 0.03 0.02 0.02 0.02 0.02 0.03 0.03 0.02 0.01 0.01 0.01 0.01 0.01 0.01 0.01 0.03 0.03 0.02 0.03 0.02 0.02 0.02 0.02 0.02 0.03 0.02 0.04 0.09
0.09 0.08 0.04 0.03 0.02 0.02 0.01 0.01 0.01 0.01 0.01 0.01 0.01 0.01 0.01 0.02 0.02 0.02 0.02 0.02 0.02 0.02 0.02 0.02 0.01 0.00 0.01 0.01 0.01 0.01 0.02 0.02 0.02 0.02 0.01 0.01 0.01 0.02 0.02 0.02 0.02 0.03 0.06
0.05 0.05 0.03 0.03 0.02 0.01 0.01 0.01 0.01 0.01 0.01 0.01 0.01 0.01 0.01 0.01 0.02 0.02 0.03 0.03 0.03 0.03 0.03 0.03 0.01 0.01 0.01 0.00 0.01 0.01 0.01 0.01 0.01 0.01 0.01 0.01 0.01 0.02 0.02 0.02 0.03 0.04 0.05
0.02 0.04 0.03 0.03 0.02 0.01 0.01 0.01 0.01 0.01 0.01 0.01 0.02 0.02 0.01 0.01 0.01 0.02 0.03 0.04 0.05 0.06 0.04 0.03 0.02 0.02 0.02 0.01 0.01 0.01 0.01 0.01 0.02 0.02 0.02 0.01 0.01 0.02 0.02 0.01 0.02 0.03 0.04
0.00 0.02 0.03 0.03 0.03 0.02 0.01 0.00 0.00 0.01 0.01 0.02 0.02 0.01 0.01 0.01 0.01 0.02 0.02 0.03 0.04 0.05 0.04 0.02 0.02 0.02 0.02 0.02 0.01 0.01 0.01 0.01 0.02 0.02 0.02 0.02 0.02 0.02 0.02 0.01 0.01 0.02 0.03
0.01 0.02 0.03 0.04 0.03 0.02 0.01 0.00 0.00 0.00 0.00 0.00 0.00 0.01 0.01 0.01 0.02 0.03 0.05 0.05 0.05 0.04 0.04 0.03 0.02 0.02 0.02 0.01 0.01 0.01 0.01 0.01 0.01 0.01 0.01 0.01 0.01 0.02 0.02 0.02 0.02 0.02 0.03
0.03 0.04 0.03 0.03 0.02 0.02 0.01 0.01 0.01 0.00 0.00 0.00 0.00 0.00 0.00 0.01 0.02 0.05 0.07 0.07 0.08 0.06 0.04 0.04 0.03 0.02 0.02 0.01 0.01 0.01 0.01 0.01 0.01 0.01 0.01 0.00 0.01 0.01 0.02 0.02 0.02 0.04 0.03
MSLP
1015.12 1014.55 1014.06 1013.74 1013.59 1013.57 1013.62 1013.66 1013.65 1013.56 1013.40 1013.21 1013.04 1012.95 1012.94 1013.02 1013.16 1013.33 1013.50 1013.63 1013.73 1013.82 1013.92 1014.06 1014.25 1014.49 1014.76 1015.03 1015.27 1015.44 1015.56 1015.61 1015.64 1015.64 1015.66 1015.69 1015.74 1015.78 1015.82 1015.84 1015.84 1015.85 1015.87
1015.01 1014.52 1014.12 1013.86 1013.74 1013.75 1013.80 1013.85 1013.84 1013.76 1013.62 1013.46 1013.32 1013.25 1013.25 1013.34 1013.47 1013.61 1013.73 1013.83 1013.89 1013.96 1014.04 1014.17 1014.36 1014.60 1014.86 1015.11 1015.34 1015.51 1015.62 1015.69 1015.73 1015.77 1015.81 1015.86 1015.92 1015.96 1015.99 1016.00 1015.99 1016.00 1016.02
1014.88 1014.46 1014.13 1013.93 1013.87 1013.91 1013.99 1014.05 1014.07 1014.01 1013.91 1013.78 1013.67 1013.61 1013.62 1013.68 1013.77 1013.85 1013.92 1013.96 1013.99 1014.02 1014.09 1014.22 1014.41 1014.64 1014.90 1015.16 1015.38 1015.55 1015.67 1015.76 1015.83 1015.90 1015.97 1016.04 1016.11 1016.15 1016.17 1016.17 1016.16 1016.17 1016.20
1014.74 1014.40 1014.13 1014.00 1013.99 1014.06 1014.17 1014.27 1014.32 1014.30 1014.23 1014.14 1014.06 1014.01 1014.00 1014.02 1014.05 1014.07 1014.07 1014.05 1014.03 1014.04 1014.11 1014.24 1014.43 1014.68 1014.94 1015.20 1015.42 1015.60 1015.75 1015.86 1015.96 1016.06 1016.16 1016.25 1016.32 1016.36 1016.37 1016.36 1016.35 1016.35 1016.40
1014.64 1014.36 1014.16 1014.08 1014.11 1014.23 1014.37 1014.50 1014.57 1014.59 1014.55 1014.49 1014.43 1014.38 1014.35 1014.33 1014.30 1014.25 1014.19 1014.12 1014.07 1014.06 1014.13 1014.27 1014.48 1014.74 1015.01 1015.28 1015.51 1015.70 1015.85 1015.99 1016.11 1016.24 1016.36 1016.46 1016.53 1016.57 1016.57 1016.55 1016.53 1016.53 1016.59
1014.59 1014.36 1014.22 1014.19 1014.27 1014.41 1014.57 1014.71 1014.80 1014.83 1014.82 1014.78 1014.74 1014.69 1014.65 1014.60 1014.53 1014.43 1014.32 1014.21 1014.14 1014.13 1014.20 1014.36 1014.58 1014.86 1015.14 1015.41 1015.64 1015.83 1015.99 1016.14 1016.28 1016.42 1016.55 1016.66 1016.73 1016.76 1016.74 1016.71 1016.68 1016.69 1016.75
1014.59 1014.42 1014.33 1014.35 1014.46 1014.61 1014.76 1014.89 1014.97 1015.00 1015.00 1014.98 1014.95 1014.92 1014.88 1014.82 1014.74 1014.62 1014.49 1014.37 1014.29 1014.28 1014.36 1014.53 1014.76 1015.04 1015.32 1015.58 1015.80 1015.98 1016.14 1016.29 1016.43 1016.58 1016.71 1016.82 1016.88 1016.90 1016.88 1016.83 1016.80 1016.80 1016.86
1014.63 1014.51 1014.49 1014.55 1014.67 1014.81 1014.94 1015.03 1015.08 1015.09 1015.08 1015.07 1015.06 1015.06 1015.05 1015.01 1014.94 1014.84 1014.72 1014.60 1014.52 1014.52 1014.60 1014.77 1015.00 1015.26 1015.52 1015.76 1015.96 1016.13 1016.27 1016.41 1016.55 1016.69 1016.82 1016.92 1016.99 1017.00 1016.97 1016.92 1016.88 1016.88 1016.94
1014.67 1014.63 1014.66 1014.76 1014.89 1015.01 1015.09 1015.13 1015.12 1015.10 1015.07 1015.07 1015.09 1015.14 1015.18 1015.19 1015.17 1015.10 1015.00 1014.90 1014.84 1014.84 1014.91 1015.06 1015.27 1015.51 1015.74 1015.94 1016.11 1016.24 1016.36 1016.48 1016.61 1016.75 1016.88 1016.98 1017.04 1017.06 1017.03 1016.99 1016.95 1016.95 1017.00
1014.67 1014.71 1014.81 1014.95 1015.08 1015.18 1015.21 1015.19 1015.12 1015.06 1015.01 1015.02 1015.08 1015.18 1015.29 1015.37 1015.41 1015.39 1015.33 1015.25 1015.20 1015.19 1015.25 1015.37 1015.54 1015.74 1015.93 1016.10 1016.23 1016.34 1016.43 1016.53 1016.64 1016.77 1016.90 1017.01 1017.09 1017.12 1017.11 1017.08 1017.04 1017.04 1017.09
1014.61 1014.73 1014.91 1015.08 1015.22 1015.29 1015.28 1015.20 1015.09 1014.99 1014.94 1014.96 1015.07 1015.22 1015.40 1015.56 1015.66 1015.70 1015.67 1015.61 1015.56 1015.54 1015.57 1015.66 1015.80 1015.96 1016.11 1016.24 1016.34 1016.42 1016.50 1016.58 1016.68 1016.81 1016.94 1017.07 1017.16 1017.22 1017.23 1017.22 1017.20 1017.20 1017.24
1014.44 1014.65 1014.88 1015.10 1015.26 1015.32 1015.28 1015.16 1015.02 1014.91 1014.86 1014.91 1015.06 1015.28 1015.52 1015.74 1015.90 1015.98 1015.99 1015.95 1015.89 1015.86 1015.87 1015.93 1016.03 1016.16 1016.29 1016.40 1016.48 1016.55 1016.61 1016.68 1016.78 1016.90 1017.03 1017.17 1017.29 1017.37 1017.42 1017.43 1017.43 1017.44 1017.47
1014.14 1014.41 1014.71 1014.97 1015.14 1015.21 1015.17 1015.06 1014.92 1014.81 1014.79 1014.88 1015.07 1015.34 1015.63 1015.90 1016.10 1016.22 1016.25 1016.23 1016.17 1016.13 1016.13 1016.17 1016.26 1016.38 1016.50 1016.61 1016.69 1016.76 1016.81 1016.88 1016.96 1017.08 1017.21 1017.35 1017.49 1017.60 1017.68 1017.72 1017.74 1017.75 1017.77
1013.69 1014.01 1014.35 1014.64 1014.85 1014.94 1014.93 1014.86 1014.76 1014.70 1014.72 1014.85 1015.08 1015.39 1015.71 1016.01 1016.25 1016.39 1016.44 1016.43 1016.39 1016.35 1016.36 1016.41 1016.51 1016.64 1016.77 1016.90 1017.00 1017.07 1017.13 1017.19 1017.26 1017.36 1017.48 1017.61 1017.75 1017.88 1017.98 1018.05 1018.09 1018.10 1018.10
1013.11 1013.45 1013.80 1014.12 1014.36 1014.50 1014.56 1014.55 1014.53 1014.54 1014.63 1014.81 1015.08 1015.41 1015.75 1016.07 1016.31 1016.48 1016.55 1016.56 1016.55 1016.54 1016.57 1016.65 1016.79 1016.95 1017.12 1017.28 1017.40 1017.50 1017.56 1017.61 1017.66 1017.72 1017.82 1017.93 1018.06 1018.19 1018.30 1018.38 1018.43 1018.45 1018.44
1012.43 1012.74 1013.08 1013.41 1013.69 1013.91 1014.05 1014.15 1014.24 1014.35 1014.52 1014.75 1015.05 1015.39 1015.74 1016.05 1016.31 1016.48 1016.59 1016.64 1016.67 1016.72 1016.80 1016.93 1017.11 1017.32 1017.53 1017.73 1017.88 1017.99 1018.06 1018.09 1018.12 1018.14 1018.19 1018.27 1018.37 1018.48 1018.58 1018.67 1018.73 1018.76 1018.73
1011.69 1011.96 1012.27 1012.60 1012.92 1013.21 1013.47 1013.70 1013.91 1014.14 1014.39 1014.68 1015.00 1015.35 1015.68 1015.99 1016.24 1016.44 1016.58 1016.69 1016.78 1016.89 1017.04 1017.23 1017.46 1017.72 1017.97 1018.20 1018.38 1018.51 1018.57 1018.59 1018.58 1018.57 1018.57 1018.59 1018.65 1018.72 1018.81 1018.90 1018.96 1018.98 1018.96
1010.99 1011.18 1011.44 1011.77 1012.12 1012.50 1012.87 1013.24 1013.59 1013.93 1014.27 1014.61 1014.95 1015.29 1015.61 1015.90 1016.16 1016.38 1016.56 1016.73 1016.90 1017.08 1017.30 1017.55 1017.82 1018.11 1018.40 1018.65 1018.85 1018.98 1019.05 1019.05 1019.02 1018.97 1018.92 1018.89 1018.89 1018.93 1018.99 1019.05 1019.11 1019.13 1019.11
1010.39 1010.50 1010.70 1011.01 1011.40 1011.85 1012.33 1012.83 1013.32 1013.78 1014.20 1014.58 1014.93 1015.25 1015.54 1015.82 1016.08 1016.32 1016.56 1016.79 1017.03 1017.28 1017.55 1017.84 1018.15 1018.46 1018.75 1019.01 1019.22 1019.36 1019.43 1019.44 1019.39 1019.31 1019.22 1019.15 1019.10 1019.09 1019.11 1019.16 1019.20 1019.22 1019.20
1009.95 1009.99 1010.13 1010.41 1010.82 1011.34 1011.92 1012.54 1013.14 1013.70 1014.19 1014.60 1014.95 1015.25 1015.52 1015.77 1016.03 1016.30 1016.58 1016.87 1017.17 1017.47 1017.78 1018.10 1018.41 1018.71 1019.00 1019.25 1019.46 1019.62 1019.70 1019.72 1019.68 1019.60 1019.49 1019.39 1019.30 1019.24 1019.23 1019.24 1019.26 1019.27 1019.25
1009.73 1009.69 1009.78 1010.04 1010.45 1011.01 1011.68 1012.38 1013.08 1013.71 1014.25 1014.68 1015.02 1015.30 1015.54 1015.77 1016.03 1016.31 1016.62 1016.96 1017.30 1017.64 1017.96 1018.28 1018.57 1018.85 1019.12 1019.36 1019.57 1019.74 1019.85 1019.91 1019.90 1019.84 1019.74 1019.62 1019.50 1019.41 1019.35 1019.32 1019.31 1019.31 1019.29
1009.71 1009.62 1009.66 1009.88 1010.29 1010.87 1011.58 1012.35 1013.11 1013.79 1014.36 1014.80 1015.13 1015.38 1015.59 1015.80 1016.04 1016.34 1016.67 1017.03 1017.39 1017.74 1018.07 1018.36 1018.62 1018.87 1019.10 1019.32 1019.54 1019.74 1019.90 1020.01 1020.06 1020.04 1019.96 1019.84 1019.71 1019.59 1019.48 1019.41 1019.36 1019.34 1019.31
1009.86 1009.74 1009.74 1009.92 1010.30 1010.88 1011.60 1012.40 1013.18 1013.89 1014.48 1014.91 1015.23 1015.45 1015.63 1015.82 1016.06 1016.35 1016.68 1017.05 1017.42 1017.76 1018.07 1018.33 1018.55 1018.76 1018.96 1019.17 1019.40 1019.63 1019.84 1020.02 1020.14 1020.18 1020.15 1020.05 1019.91 1019.75 1019.61 1019.49 1019.40 1019.34 1019.29
1010.11 1009.98 1009.94 1010.07 1010.42 1010.96 1011.67 1012.46 1013.24 1013.96 1014.54 1014.97 1015.26 1015.47 1015.63 1015.80 1016.02 1016.30 1016.63 1016.99 1017.35 1017.68 1017.96 1018.18 1018.37 1018.54 1018.72 1018.92 1019.16 1019.43 1019.70 1019.95 1020.13 1020.24 1020.25 1020.18 1020.05 1019.88 1019.70 1019.53 1019.40 1019.30 1019.22
1010.36 1010.23 1010.17 1010.26 1010.55 1011.05 1011.71 1012.46 1013.23 1013.92 1014.49 1014.91 1015.20 1015.39 1015.53 1015.69 1015.89 1016.16 1016.48 1016.83 1017.17 1017.48 1017.73 1017.93 1018.09 1018.23 1018.40 1018.60 1018.86 1019.16 1019.47 1019.77 1020.02 1020.18 1020.24 1020.20 1020.08 1019.90 1019.70 1019.50 1019.33 1019.20 1019.08
1010.56 1010.44 1010.35 1010.40 1010.64 1011.07 1011.67 1012.38 1013.10 1013.77 1014.32 1014.73 1015.01 1015.19 1015.33 1015.48 1015.67 1015.92 1016.23 1016.56 1016.88 1017.18 1017.41 1017.59 1017.73 1017.86 1018.02 1018.22 1018.49 1018.80 1019.15 1019.48 1019.77 1019.98 1020.08 1020.07 1019.97 1019.80 1019.59 1019.38 1019.19 1019.03 1018.88
Thickness
5745 5750 5751 5753 5754 5755 5756 5757 5758 5759 5759 5760 5761 5761 5762 5763 5763 5764 5765 5766 5766 5767 5767 5768 5769 5769 5769 5769 5769 5768 5769 5769 5769 5769 5769 5769 5769 5769 5769 5769 5769 5768 5769
5747 5749 5750 5751 5752 5753 5754 5754 5755 5756 5757 5757 5758 5759 5759 5760 5760 5761 5762 5763 5763 5764 5764 5765 5765 5766 5766 5766 5766 5766 5766 5767 5767 5767 5767 5767 5767 5767 5767 5766 5766 5766 5766
5747 5747 5748 5749 5749 5750 5751 5752 5752 5753 5754 5754 5755 5756 5756 5757 5757 5758 5759 5759 5760 5760 5761 5761 5762 5763 5763 5763 5764 5764 5764 5764 5765 5765 5764 5764 5764 5764 5764 5764 5764 5764 5764
5746 5746 5746 5746 5747 5748 5749 5749 5750 5750 5751 5752 5752 5753 5753 5754 5754 5755 5755 5755 5756 5757 5758 5758 5759 5759 5760 5760 5760 5761 5761 5761 5762 5762 5761 5761 5761 5761 5761 5761 5761 5761 5761
5744 5744 5743 5744 5745 5745 5746 5747 5747 5747 5748 5749 5749 5749 5750 5750 5751 5751 5752 5752 5753 5754 5754 5755 5755 5756 5756 5756 5757 5758 5758 5758 5758 5758 5758 5758 5758 5759 5758 5758 5758 5758 5758
5742 5742 5741 5742 5742 5743 5743 5744 5744 5745 5745 5746 5746 5746 5747 5747 5748 5748 5748 5749 5749 5750 5751 5751 5752 5752 5752 5753 5753 5754 5755 5755 5755 5754 5754 5755 5755 5756 5756 5755 5755 5755 5756
5739 5739 5739 5739 5740 5740 5741 5741 5741 5742 5742 5743 5743 5743 5744 5744 5744 5744 5745 5745 5746 5746 5746 5747 5748 5749 5749 5749 5750 5751 5751 5751 5751 5750 5750 5751 5752 5752 5752 5752 5752 5752 5752
5738 5737 5737 5737 5737 5738 5738 5739 5739 5739 5739 5739 5740 5740 5740 5741 5741 5741 5741 5742 5742 5742 5742 5743 5743 5744 5745 5745 5746 5746 5746 5747 5747 5747 5747 5747 5748 5749 5749 5748 5749 5749 5749
5736 5735 5734 5734 5734 5735 5735 5735 5736 5736 5736 5736 5736 5737 5737 5737 5737 5737 5738 5738 5738 5738 5739 5739 5739 5740 5741 5742 5742 5743 5743 5743 5743 5743 5744 5744 5745 5745 5746 5745 5745 5745 5745
5732 5732 5731 5731 5731 5731 5731 5732 5732 5732 5732 5732 5733 5733 5733 5733 5733 5733 5733 5734 5734 5734 5735 5735 5736 5736 5737 5738 5738 5738 5739 5739 5739 5739 5740 5740 5741 5742 5742 5742 5742 5742 5741
5727 5728 5728 5728 5728 5728 5728 5728 5728 5729 5729 5729 5729 5729 5729 5729 5729 5729 5730 5730 5730 5730 5730 5731 5731 5732 5733 5733 5734 5734 5734 5734 5734 5735 5736 5737 5738 5738 5738 5738 5738 5738 5737
5722 5724 5725 5725 5725 5724 5724 5724 5724 5725 5725 5725 5725 5725 5725 5725 5725 5725 5725 5725 5726 5726 5726 5726 5727 5727 5728 5728 5729 5729 5729 5730 5730 5731 5732 5733 5734 5734 5734 5734 5733 5733 5733
5722 5722 5722 5722 5722 5721 5721 5721 5721 5721 5721 5721 5722 5721 5721 5721 5721 5721 5721 5721 5721 5721 5721 5721 5722 5722 5722 5723 5724 5724 5724 5725 5725 5726 5727 5729 5729 5729 5729 5729 5729 5728 5728
5721 5721 5721 5720 5719 5718 5718 5718 5718 5717 5717 5717 5717 5717 5717 5717 5717 5716 5716 5716 5716 5716 5716 5716 5716 5717 5717 5718 5719 5719 5719 5720 5720 5721 5722 5723 5723 5724 5724 5724 5724 5724 5723
5719 5719 5719 5718 5717 5716 5716 5715 5715 5714 5714 5714 5713 5713 5713 5712 5712 5712 5712 5711 5711 5711 5711 5711 5712 5712 5712 5713 5713 5713 5713 5714 5714 5715 5716 5717 5717 5718 5719 5719 5719 5719 5719
5717 5717 5717 5716 5715 5713 5712 5712 5711 5711 5711 5710 5709 5709 5709 5708 5708 5708 5707 5707 5707 5707 5707 5707 5707 5707 5707 5707 5707 5708 5708 5708 5708 5709 5710 5711 5712 5712 5713 5714 5715 5715 5715
5714 5715 5714 5714 5712 5710 5709 5708 5708 5707 5707 5705 5705 5705 5704 5704 5704 5703 5702 5702 5702 5702 5702 5702 5702 5702 5702 5702 5701 5702 5702 5702 5703 5703 5704 5705 5705 5707 5708 5708 5709 5709 5710
5713 5712 5711 5711 5707 5706 5705 5705 5704 5703 5702 5701 5700 5700 5700 5699 5699 5698 5698 5698 5698 5698 5697 5697 5696 5695 5695 5694 5694 5695 5696 5696 5696 5697 5698 5699 5699 5700 5702 5703 5703 5704 5704
5712 5709 5708 5706 5704 5702 5701 5700 5699 5699 5698 5696 5696 5695 5695 5694 5694 5694 5693 5693 5693 5693 5692 5692 5690 5689 5688 5688 5689 5689 5689 5690 5691 5691 5692 5692 5693 5694 5695 5696 5697 5698 5699
5710 5708 5704 5703 5701 5699 5697 5695 5694 5693 5692 5691 5691 5690 5689 5689 5689 5688 5688 5688 5688 5687 5686 5685 5684 5684 5683 5683 5684 5682 5682 5684 5684 5685 5686 5686 5686 5687 5688 5689 5690 5691 5692
5707 5704 5701 5699 5697 5695 5692 5690 5687 5685 5685 5685 5685 5685 5684 5684 5683 5683 5682 5682 5682 5681 5680 5680 5679 5678 5677 5677 5676 5673 5674 5676 5677 5678 5679 5679 5680 5681 5682 5683 5684 5685 5686
5702 5700 5698 5695 5693 5692 5690 5687 5685 5682 5680 5680 5679 5679 5679 5678 5678 5677 5676 5676 5675 5675 5674 5674 5673 5671 5671 5672 5669 5665 5662 5664 5668 5672 5672 5673 5673 5674 5675 5676 5677 5678 5679
5698 5697 5696 5692 5690 5689 5687 5684 5681 5677 5675 5673 5672 5672 5672 5672 5672 5671 5671 5670 5670 5669 5668 5668 5668 5667 5664 5665 5665 5662 5657 5654 5656 5661 5664 5666 5666 5667 5669 5670 5671 5672 5672
5697 5695 5693 5690 5687 5685 5683 5681 5676 5672 5668 5667 5666 5666 5666 5666 5666 5665 5665 5665 5665 5664 5663 5663 5663 5663 5661 5658 5659 5659 5658 5655 5651 5650 5654 5658 5660 5661 5662 5663 5664 5665 5666
5695 5692 5690 5687 5684 5682 5680 5677 5673 5669 5666 5664 5662 5661 5660 5659 5659 5660 5660 5660 5659 5659 5658 5658 5657 5657 5657 5655 5654 5653 5652 5650 5650 5647 5645 5648 5651 5654 5655 5657 5658 5658 5659
5692 5689 5686 5683 5680 5678 5676 5673 5670 5666 5662 5659 5657 5654 5653 5653 5653 5654 5654 5654 5653 5653 5653 5652 5652 5652 5652 5651 5650 5649 5648 5646 5644 5643 5640 5640 5642 5645 5648 5650 5651 5652 5653